Location: Adé
(43.1333°N, 0.0333°W)
Time: 08:57:55
(UTC+00:00)

Cosmos 1943 Rocket - Pass Details

Date: 08 August 2025
Orbit: 809 x 844 km, 71.0° (Epoch: 12 April)

Event Time Altitude Azimuth Distance (km) Brightness Sun altitude
Rises 21:53:38 0° 348° (NNW) 3,409 6.5 -23.7°
Reaches altitude 10° 21:57:49 10° 17° (NNE) 2,473 5.1 -24.1°
Maximum altitude 22:00:06 12° 41° (NE) 2,307 4.6 -24.3°
Drops below altitude 10° 22:02:22 10° 65° (ENE) 2,469 4.5 -24.6°
Enters shadow 22:03:00 - 71° (ENE) 2,569 4.6 -24.6°
